Location: Newark
(5.8900°S, 42.6378°W)
Time: 00:53:36
(UTC+00:00)

Vanguard 1 Rocket - Pass Details

Date: 18 October 2019
Orbit: 651 x 4225 km, 34.3° (Epoch: 14 November)

Event Time Altitude Azimuth Distance (km) Brightness Sun altitude
Rises 10:20:01 0° 247° (WSW) 3,521 10.0 26.6°
Reaches altitude 10° 10:22:07 10° 252° (WSW) 2,803 9.5 27.1°
Maximum altitude 10:28:42 54° 329° (NNW) 1,751 9.0 28.8°
Drops below altitude 10° 10:41:19 10° 42° (NE) 5,175 11.8 31.9°
Sets 10:46:47 0° 46° (NE) 6,786 12.3 33.2°
